Date String (YYYY-MM-DD hh:mm:ss) UTC,Instrument flags,Ambient pressure (hPa),Sample flow (lpm),Bypass flow (lpm),Sample temperature (°C),Ambient temperature (°C),ASC tube jacket temperature (°C),LED temperature (°C),Box temperature (°C),Sample RH (%),Span deviation,Mass concentration (μg/m³),Mass concentration (μg/m³),Mass concentration (μg/m³)
DateTimeUTC,F1_M11,P_M11,Q1_M11,Q2_M11,T1_M11,T2_M11,T3_M11,T4_M11,T5_M11,U1_M11,ZSPAN_M11,X0_M11,X2_M11,X1_M11
2023-05-29 18:00:00,,0828.9,5.01,0.00,29.2,25.7,00.0,37.4,30.7,27.4,0000.0,0011.53,0004.82,0003.87
2023-05-29 18:01:00,,0828.8,5.01,0.00,29.2,25.9,00.0,37.4,30.6,27.3,0000.0,0011.55,0004.78,0003.87
2023-05-29 18:02:00,,0828.8,4.99,0.00,29.1,26.2,00.0,37.4,30.7,27.4,0000.0,0011.98,0004.79,0003.88
2023-05-29 18:03:00,,0828.8,5.00,0.00,29.1,26.5,00.0,37.4,30.7,27.6,0000.0,0011.92,0004.84,0003.89
2023-05-29 18:04:00,,0828.8,5.00,0.00,29.1,26.8,00.0,37.4,30.7,26.1,0000.0,0011.52,0004.88,0003.90
2023-05-29 18:05:00,,0828.8,5.01,0.00,29.1,27.0,00.0,37.4,30.8,26.3,0000.0,0012.23,0004.85,0003.90
2023-05-29 18:06:00,,0828.8,5.01,0.00,29.1,27.2,00.0,37.5,30.8,27.3,0000.0,0012.51,0004.80,0003.89
2023-05-29 18:07:00,,0828.8,5.00,0.00,29.2,27.4,00.0,37.5,30.9,27.2,0000.0,0012.77,0004.81,0003.89
2023-05-29 18:08:00,,0828.7,4.99,0.00,29.2,27.5,00.0,37.5,30.9,26.3,0000.0,0012.66,0004.80,0003.90
2023-05-29 18:09:00,,0828.8,5.00,0.00,29.2,27.7,00.0,37.5,30.9,27.2,0000.0,0011.88,0004.80,0003.92
2023-05-29 18:10:00,,0828.8,5.00,0.00,29.2,27.8,00.0,37.5,31.0,27.6,0000.0,0011.99,0004.83,0003.95
2023-05-29 18:11:00,,0828.9,5.01,0.00,29.3,27.9,00.0,37.5,31.0,28.2,0000.0,0011.86,0004.91,0003.98
2023-05-29 18:12:00,,0828.9,5.01,0.00,29.3,27.9,00.0,37.5,31.0,28.6,0000.0,0011.63,0004.99,0004.03
2023-05-29 18:13:00,,0828.8,4.99,0.00,29.3,27.8,00.0,37.5,31.0,27.6,0000.0,0011.62,0005.11,0004.10
2023-05-29 18:14:00,,0828.8,4.98,0.00,29.3,26.2,00.0,37.5,30.8,27.9,0000.0,0011.97,0005.16,0004.16
2023-05-29 18:15:00,,0828.7,5.01,0.00,29.2,24.9,00.0,37.4,30.6,29.2,0000.0,0012.00,0005.25,0004.23
2023-05-29 18:16:00,,0828.8,5.01,0.00,29.1,24.8,00.0,37.3,30.5,28.3,0000.0,0011.36,0005.38,0004.32
2023-05-29 18:17:00,,0828.7,5.00,0.00,29.0,25.1,00.0,37.3,30.4,28.1,0000.0,0011.20,0005.51,0004.43
2023-05-29 18:18:00,,0828.7,4.99,0.00,29.0,25.5,00.0,37.3,30.4,28.2,0000.0,0011.24,0005.70,0004.53
2023-05-29 18:19:00,,0828.7,5.00,0.00,29.0,25.9,00.0,37.3,30.5,27.6,0001.0,0011.76,0005.85,0004.65
2023-05-29 18:20:00,,0828.8,5.01,0.00,28.9,26.2,00.0,37.3,30.5,27.7,0003.4,0012.51,0005.98,0004.74
2023-05-29 18:21:00,,0828.7,5.00,0.00,28.9,26.5,00.0,37.3,30.6,28.2,0003.5,0012.56,0006.09,0004.85
2023-05-29 18:22:00,,0828.7,4.99,0.00,29.0,26.8,00.0,37.3,30.6,27.3,0003.4,0012.76,0006.13,0004.93
2023-05-29 18:23:00,,0828.7,5.00,0.00,29.0,27.0,00.0,37.3,30.7,27.1,0003.1,0012.94,0006.19,0004.99
2023-05-29 18:24:00,,0828.7,5.00,0.00,29.0,27.2,00.0,37.3,30.7,27.2,0003.0,0012.79,0006.22,0005.03
2023-05-29 18:25:00,,0828.7,5.00,0.00,29.0,27.3,00.0,37.3,30.7,28.1,0002.9,0012.42,0006.25,0005.07
2023-05-29 18:26:00,,0828.7,5.00,0.00,29.0,27.5,00.0,37.3,30.8,27.1,0002.9,0012.45,0006.27,0005.10
2023-05-29 18:27:00,,0828.7,5.00,0.00,29.1,27.6,00.0,37.4,30.8,27.0,0003.1,0012.44,0006.25,0005.13
2023-05-29 18:28:00,,0828.6,5.00,0.00,29.1,27.7,00.0,37.4,30.8,26.4,0003.5,0012.42,0006.27,0005.13
2023-05-29 18:29:00,,0828.6,5.01,0.00,29.1,27.8,00.0,37.4,30.9,26.5,0003.2,0012.65,0006.25,0005.15
2023-05-29 18:30:00,,0828.6,5.00,0.00,29.2,27.9,00.0,37.4,30.9,26.7,0002.9,0012.69,0006.27,0005.16
2023-05-29 18:31:00,,0828.6,5.00,0.00,29.2,27.9,00.0,37.4,30.9,27.0,0003.0,0011.83,0006.27,0005.18
2023-05-29 18:32:00,,0828.6,5.00,0.00,29.2,28.0,00.0,37.5,31.0,26.3,0003.2,0012.41,0006.28,0005.20
2023-05-29 18:33:00,,0828.6,4.99,0.00,29.2,27.5,00.0,37.4,30.9,26.4,0003.4,0012.52,0006.28,0005.19
2023-05-29 18:34:00,,0828.6,4.99,0.00,29.2,26.1,00.0,37.4,30.7,26.6,0003.5,0012.87,0006.32,0005.19
2023-05-29 18:35:00,,0828.5,5.02,0.00,29.2,25.7,00.0,37.3,30.7,26.8,0003.6,0013.09,0006.31,0005.20
2023-05-29 18:36:00,,0828.5,4.99,0.00,29.1,25.9,00.0,37.3,30.6,26.9,0003.2,0013.73,0006.37,0005.20
2023-05-29 18:37:00,,0828.6,4.99,0.00,29.1,26.1,00.0,37.3,30.6,27.4,0003.9,0014.33,0006.34,0005.17
2023-05-29 18:38:00,,0828.5,5.00,0.00,29.1,26.4,00.0,37.3,30.7,27.3,0004.2,0014.62,0006.32,0005.12
2023-05-29 18:39:00,,0828.5,5.00,0.00,29.1,26.7,00.0,37.4,30.7,27.5,0004.0,0014.56,0006.29,0005.07
2023-05-29 18:40:00,,0828.6,5.01,0.00,29.1,27.0,00.0,37.4,30.7,28.7,0004.0,0014.31,0006.23,0005.00
2023-05-29 18:41:00,,0828.6,5.00,0.00,29.1,27.2,00.0,37.4,30.8,26.7,0003.8,0014.10,0006.12,0004.92
2023-05-29 18:42:00,,0828.6,4.99,0.00,29.1,27.3,00.0,37.4,30.8,27.5,0004.0,0013.93,0006.03,0004.84
2023-05-29 18:43:00,,0828.6,4.99,0.00,29.1,27.5,00.0,37.4,30.8,27.0,0004.2,0013.16,0005.93,0004.76
2023-05-29 18:44:00,,0828.6,4.99,0.00,29.1,27.6,00.0,37.4,30.9,26.3,0004.0,0012.77,0005.88,0004.69
2023-05-29 18:45:00,,0828.6,5.01,0.00,29.2,27.7,00.0,37.4,30.9,26.3,0004.2,0012.16,0005.74,0004.59
2023-05-29 18:46:00,,0828.6,5.00,0.00,29.2,27.8,00.0,37.5,30.9,26.9,0004.6,0012.08,0005.61,0004.48
2023-05-29 18:47:00,,0828.5,5.00,0.00,29.2,27.9,00.0,37.5,31.0,27.4,0002.1,0011.67,0005.48,0004.37
2023-05-29 18:48:00,,0828.6,5.01,0.00,29.3,27.9,00.0,37.5,31.0,26.6,0000.0,0011.26,0005.39,0004.28
2023-05-29 18:49:00,,0828.5,4.98,0.00,29.3,26.6,00.0,37.4,30.9,26.0,0000.0,0011.03,0005.34,0004.24
2023-05-29 18:50:00,,0828.5,5.00,0.00,29.2,25.7,00.0,37.3,30.8,27.1,0000.0,0010.83,0005.24,0004.18
2023-05-29 18:51:00,,0828.5,5.02,0.00,29.2,25.8,00.0,37.3,30.7,26.0,0000.0,0010.51,0005.13,0004.13
2023-05-29 18:52:00,,0828.5,4.99,0.00,29.1,26.1,00.0,37.3,30.6,25.4,0000.0,0010.51,0005.10,0004.09
2023-05-29 18:53:00,,0828.5,5.00,0.00,29.1,26.3,00.0,37.4,30.6,26.4,0000.0,0010.57,0005.08,0004.03
2023-05-29 18:54:00,,0828.4,5.01,0.00,29.1,26.6,00.0,37.4,30.7,26.5,0000.0,0010.57,0005.03,0003.97
2023-05-29 18:55:00,,0828.5,5.01,0.00,29.1,26.9,00.0,37.4,30.7,25.9,0000.0,0010.50,0004.96,0003.91
2023-05-29 18:56:00,,0828.4,5.01,0.00,29.1,27.1,00.0,37.4,30.8,25.3,0000.0,0010.46,0004.94,0003.90
2023-05-29 18:57:00,,0828.4,4.99,0.00,29.1,27.3,00.0,37.4,30.8,26.5,0000.0,0010.09,0004.93,0003.88
2023-05-29 18:58:00,,0828.4,4.99,0.00,29.1,27.5,00.0,37.4,30.9,26.7,0000.0,0009.82,0004.88,0003.86
2023-05-29 18:59:00,,0828.4,5.00,0.00,29.2,27.6,00.0,37.4,30.9,26.8,0000.0,0009.81,0004.91,0003.87
